Location: Celiny
(50.4497°N, 19.0644°E)
Time: 07:47:55
(UTC+00:00)

Daily predictions for brighter satellites

Satellite Brightness Start Highest point End
(mag) Time Altitude Azimuth Time Altitude Azimuth Time Altitude Azimuth
NOSS 3-4 (C) 4.3 18:53:28 10° NW 18:59:47 54° NE 19:07:13 10° ESE
DEBRIS 3.0 18:58:08 10° WSW 19:00:45 59° SSE 19:07:26 10° E
Meteor 2-12 Rocket 4.5 18:56:21 10° N 19:02:28 80° E 19:08:35 10° SSE
Cosmos 2237 4.4 18:56:45 10° NNW 19:02:31 82° WSW 19:08:16 10° SSE
Cosmos 2082 Rocket 2.2 18:57:47 10° SSW 19:03:30 76° ESE 19:09:13 10° NNE
Cosmos 2016 Rocket 4.0 18:58:04 10° S 19:04:19 81° E 19:10:31 10° NNE
Cosmos 2369 4.0 19:01:20 10° NNW 19:07:02 69° WSW 19:12:43 10° SSE
ATLAS 2AS CENTAUR R/B 4.4 19:02:27 10° W 19:08:48 38° NNW 19:15:05 10° NE
CZ-4C R/B 3.0 19:08:38 10° WSW 19:12:57 49° NW 19:18:34 10° NE
IRS-1A Rocket 4.5 19:09:49 10° SSE 19:15:40 87° WSW 19:21:38 10° NNW
CZ-4B R/B 3.7 19:15:23 10° SE 19:18:20 28° ENE 19:21:21 10° N
Cosmos 2151 3.4 19:15:05 10° N 19:19:03 45° ENE 19:22:58 10° SSE
USA 306 2.9 19:17:19 10° W 19:20:26 43° NNW 19:22:36 10° ENE
Cosmos 2098 Rocket 4.5 19:17:04 10° SE 19:20:34 21° E 19:23:45 10° NE
Ariane Rocket 3.8 19:19:05 10° SE 19:23:41 37° ENE 19:28:19 10° N
Cosmos 1626 Rocket 3.6 19:19:37 10° N 19:24:00 69° ENE 19:28:22 10° SSE
Cosmos 2278 3.9 19:19:38 10° NNW 19:25:20 63° ENE 19:30:44 11° SE
Cosmos 1782 3.4 19:25:11 10° SSW 19:28:37 50° WNW 19:32:04 10° N
Spot 2 Rocket 3.5 19:23:52 10° SSE 19:28:53 87° WSW 19:33:58 10° NNW
SL-16 R/B 2.2 19:23:44 10° NNW 19:29:27 82° ENE 19:34:53 11° SSE
Cosmos 1607 4.4 19:24:45 10° SW 19:30:55 69° NW 19:37:13 10° NE
ERS-1 Rocket 4.1 19:27:27 10° SSW 19:32:11 42° W 19:36:57 10° NNW
SPOT 3 Rocket 3.8 19:28:51 11° SE 19:33:44 55° ENE 19:38:45 10° N
MOS 1-B 4.4 19:30:57 10° SSE 19:36:45 84° WSW 19:42:37 10° NNW
Cosmos 1980 Rocket 4.3 19:38:49 10° NW 19:43:02 22° W 19:47:12 10° SSW
Cosmos 2061 Rocket 4.1 19:37:29 10° S 19:43:43 83° W 19:50:06 10° N
CZ-4 R/B 3.8 19:42:32 10° SW 19:44:47 16° W 19:47:03 10° NW
USA 186 1.8 19:42:50 11° S 19:45:22 58° W 19:48:07 10° NNW
Cosmos 2228 4.0 19:42:28 10° SSW 19:46:25 46° WNW 19:50:24 10° N
USA 290 3.7 19:45:44 17° SE 19:46:41 19° ESE 19:49:01 10° NE
SL-08 R/B 3.6 19:42:25 10° N 19:47:14 71° WNW 19:51:56 10° SSW
COSMOS 2406 3.2 19:41:39 10° SSW 19:47:24 80° ESE 19:53:10 10° NNE
CZ-4B R/B 3.6 19:43:25 14° SE 19:47:27 58° ENE 19:52:14 10° N
Cosmos 1933 3.2 19:45:09 10° S 19:48:53 61° E 19:52:40 10° NNE
ISS -3.5 19:48:01 10° W 19:51:22 69° N 19:54:43 10° E
Cosmos 1461 2.4 19:47:50 10° SSW 19:51:32 77° SE 19:55:13 10° NE
Cosmos 1992 Rocket 4.3 19:46:27 10° SSW 19:51:39 72° WNW 19:56:52 10° NNE
NOSS 3 (A) 4.0 19:49:29 10° NW 19:51:44 90° ENE 19:53:22 22° SE
Terra 3.5 19:48:37 10° SSW 19:52:43 30° W 19:56:52 10° NNW
Okean 1 4.4 19:51:56 17° SE 19:53:31 23° E 19:56:25 10° NE
Meteor 1-20 Rocket 4.3 19:48:11 10° NNW 19:53:48 82° W 19:59:21 11° S
Okean O Rocket 2.3 19:52:59 10° S 19:57:09 49° W 20:01:21 10° NNW
Cosmos 1777 Rocket 4.0 19:53:59 10° NNW 19:59:14 73° ENE 20:03:12 17° SSE
Cosmos 2333 Rocket 2.4 19:54:02 10° NNW 19:59:44 71° WSW 20:04:29 15° SSE
Cosmos 1544 Rocket 3.8 20:00:34 10° SSW 20:04:53 71° W 20:09:13 10° N
NOSS 3-3 (A) 4.3 20:00:33 10° WSW 20:05:50 63° NW 20:12:17 10° NE
Cosmos 1437 Rocket 2.7 20:03:50 10° SSW 20:07:23 73° WNW 20:11:00 10° N
Cosmos 1503 Rocket 4.1 20:04:00 10° NNW 20:09:12 69° ENE 20:12:49 20° SE
Cosmos 2360 Rocket 2.2 20:04:06 10° NNW 20:09:49 86° ENE 20:13:59 19° SSE
Okean 1-7 Rocket 3.7 20:05:29 10° N 20:09:57 67° ENE 20:13:00 20° SSE
Cosmos 2034 Rocket 4.4 20:13:54 18° SSE 20:18:27 47° E 20:24:28 10° NNE
Okean-O 4.1 20:15:33 10° SSW 20:19:27 31° W 20:23:23 10° NNW
Cosmos 2333 4.2 20:14:02 10° NNW 20:19:48 87° ENE 20:23:47 21° SSE
Cosmos 1486 Rocket 4.2 20:14:53 10° NNW 20:20:08 71° WSW 20:23:55 19° S
CZ-2C R/B 1.8 20:21:09 34° SSE 20:22:12 86° E 20:25:00 10° NNW
Cosmos 2219 Rocket 2.3 20:16:53 10° NNW 20:22:35 72° ENE 20:26:24 21° SE
Cosmos 1766 4.2 20:20:17 10° NNE 20:23:01 25° ENE 20:24:01 21° ESE
Cosmos 1354 Rocket 4.2 20:18:57 10° NNW 20:24:11 65° ENE 20:27:29 22° SE
Nadezhda 4 Rocket 3.9 20:24:46 10° N 20:30:56 89° W 20:35:27 19° S
IRS-1C Rocket 4.3 20:27:08 18° S 20:31:08 67° WSW 20:36:25 10° NNW
Cosmos 540 Rocket 3.7 20:28:07 20° S 20:31:22 48° ESE 20:36:18 10° NNE
Cosmos 1825 Rocket 3.5 20:29:57 10° N 20:34:19 85° W 20:36:52 25° S
Cosmos 1805 3.6 20:31:41 10° NNW 20:34:51 46° W 20:36:34 22° SSW
Meteor 2-10 4.4 20:33:06 10° NNW 20:38:49 73° W 20:42:50 20° S
Aureole 1 Rocket 4.2 20:34:23 10° NNW 20:40:04 62° ENE 20:44:26 22° SE
Cosmos 1953 Rocket 3.6 20:36:45 10° N 20:41:06 67° ENE 20:43:09 30° SSE
Helios 1A 3.7 20:38:01 10° NNE 20:41:31 30° E 20:42:24 27° ESE
Cosmos 2322 Rocket 2.7 20:36:43 10° NW 20:42:14 54° WSW 20:45:49 21° S
RESURS DK-1 3.6 20:39:44 10° NNW 20:43:19 31° NE 20:45:33 18° E
USA 306 3.0 20:45:32 10° WNW 20:47:35 25° N 20:47:38 25° N
Cosmos 2082 Rocket 4.5 20:43:23 10° W 20:48:10 27° NW 20:52:58 10° NNE
Cosmos 2195 Rocket 4.4 20:42:56 10° N 20:49:12 87° E 20:53:05 24° S
TSX-5 4.1 20:47:07 10° NNW 20:50:07 40° NE 20:51:16 29° E
NOSS 3-4 (A) 4.3 20:43:39 10° NW 20:50:10 52° WSW 20:55:06 22° S
NOSS 3-4 (C) 4.3 20:44:16 10° NW 20:50:50 52° WSW 20:55:45 22° S
Cosmos 1707 2.4 20:52:04 43° E 20:52:04 43° E 20:54:46 10° NNE
CZ-4B R/B 4.4 20:49:58 14° SW 20:52:05 23° W 20:54:55 10° NW
Cosmos 468 Rocket 4.5 20:50:15 28° SSE 20:52:28 42° ESE 20:57:24 10° NE
Cosmos 2026 Rocket 4.0 20:46:49 10° N 20:53:15 80° E 20:57:08 25° SSE
Geosat 4.4 20:48:52 10° NE 20:53:37 42° ESE 20:55:36 29° SSE
Cosmos 2058 Rocket 3.4 20:53:53 32° SSE 20:55:26 48° E 20:59:37 10° NNE
Cosmos 2098 Rocket 3.9 20:53:24 11° SSW 20:57:42 46° WNW 21:01:37 10° N
Cosmos 1076 Rocket 3.7 20:54:06 10° NNW 20:58:19 65° W 21:00:20 29° S
Cosmos 44 3.5 20:54:36 10° NW 21:00:02 88° SW 21:02:45 30° SE
Cosmos 2237 Rocket 3.7 20:55:44 10° NNW 21:00:39 28° NE 21:05:22 11° ESE
Ariane Rocket 4.1 20:59:02 16° SSW 21:02:33 36° W 21:07:15 10° NNW
SL-16 R/B 4.2 21:08:57 10° WNW 21:12:50 19° W 21:16:42 10° SW
Meteor 1-26 Rocket 4.1 21:09:41 26° S 21:12:58 85° ESE 21:18:44 10° NNE
COSMOS 2428 3.0 21:08:50 10° NNW 21:14:30 63° ENE 21:17:37 27° SE
Cosmos 1763 Rocket 3.7 21:10:53 14° SSW 21:15:27 72° WNW 21:20:45 10° NNE
Cosmos 1470 3.0 21:12:34 10° N 21:15:43 40° ENE 21:16:07 38° E
ARIANE 5 R/B 3.5 21:15:19 27° ESE 21:17:07 40° ENE 21:21:18 10° N
ALOS 2 3.7 21:17:23 25° ESE 21:19:10 35° ENE 21:23:09 10° N
USA 290 4.0 21:18:06 12° WSW 21:20:37 29° WNW 21:23:25 10° N
Cosmos 1898 Rocket 3.6 21:16:51 10° NNW 21:22:02 68° ENE 21:24:23 33° SE
Helios 1B rocket 1.9 21:24:22 57° SSE 21:25:01 81° ENE 21:28:31 10° NNW
Meteor 2-2 Rocket 4.2 21:22:13 27° S 21:25:26 89° E 21:31:16 10° NNE
ISS -3.9 21:24:53 10° WNW 21:28:14 70° SSW 21:28:15 70° SSW
BREEZE-M DEB (TANK) 3.8 21:27:55 10° W 21:28:12 13° W 21:28:12 13° W
Cosmos 1536 3.0 21:32:34 10° NNW 21:36:11 53° W 21:36:59 43° SW
CSL-04 DEB 4.0 21:36:01 60° SSE 21:36:38 87° W 21:40:17 10° NNW
Cosmos-2242 3.5 21:37:47 29° SW 21:39:37 51° WNW 21:43:39 10° N
Cosmos 1092 Rocket 4.4 21:36:00 10° NNW 21:42:01 57° W 21:45:20 27° SSW
Cosmos 2333 Rocket 4.5 21:40:39 10° WNW 21:42:58 13° W 21:45:17 10° WSW
NOSS 0 Rocket 3.9 21:37:30 10° NNW 21:43:43 79° ENE 21:46:51 31° SE
KORONAS-FOTON 3.8 21:43:53 49° WSW 21:44:28 58° WNW 21:47:50 10° N
Cosmos 2297 Rocket 3.0 21:46:14 30° SE 21:47:28 33° ESE 21:52:27 10° NE
Cosmos 841 Rocket 3.5 21:47:27 40° S 21:49:10 62° ESE 21:54:21 10° NNE
Meteor 1-14 Rocket 4.1 21:46:53 10° NNW 21:52:28 84° W 21:54:40 38° S
Cosmos 2360 Rocket 4.1 21:49:21 10° WNW 21:53:02 18° W 21:55:44 13° SW
Cosmos 1842 3.1 21:56:49 52° W 21:57:00 53° WNW 22:00:06 10° N
Cosmos 2322 3.8 21:52:36 10° NW 21:58:13 62° WSW 22:00:18 38° S
Spot 4 3.7 21:57:15 44° SSE 21:58:47 87° WSW 22:03:37 10° NNW
Cosmos 1975 2.4 21:55:08 10° NNW 21:58:50 78° W 21:59:14 67° SSW
ACS3 Solar Sail 3.7 21:56:34 10° NE 21:59:54 15° E 22:02:41 11° ESE
Meteor 2-6 Rocket 4.5 21:58:28 29° SSW 22:01:36 73° WNW 22:07:35 10° N
Cosmos 1812 Rocket 3.6 22:02:59 50° SSE 22:03:58 68° E 22:08:22 10° NNE
Cosmos 2221 2.3 22:03:18 55° S 22:04:12 90° SE 22:08:26 10° N
Cosmos 2219 Rocket 3.8 22:01:40 10° NW 22:05:57 22° WSW 22:08:05 18° SW
Cosmos 1271 Rocket 2.8 22:06:21 47° WSW 22:06:46 51° WNW 22:10:05 10° N
MetOp-A 4.3 22:05:00 33° SE 22:06:50 52° ENE 22:11:20 10° N
Helios 1A 4.5 22:12:46 10° N 22:16:08 28° WNW 22:18:07 18° WSW
ARGOS Delta rocket 4.0 22:11:22 10° NNE 22:16:34 86° E 22:18:32 41° S
Cosmos 2279 Rocket 4.3 22:16:39 28° SSW 22:20:01 62° WNW 22:26:15 10° N
RESURS DK-1 3.2 22:17:04 10° NW 22:20:41 34° WSW 22:20:45 34° WSW
Meteor 2-20 4.5 22:19:22 37° SSE 22:21:50 70° E 22:27:55 10° NNE
NOSS 8 (F) 4.4 22:19:34 10° NW 22:22:21 63° NNE 22:22:21 63° NNE
Cosmos 858 Rocket 4.4 22:21:15 10° NNW 22:26:24 71° WSW 22:27:57 45° S
Meteor 1-19 Rocket 4.4 22:24:37 34° SSW 22:27:14 74° WNW 22:33:14 10° N
Cosmos 1937 Rocket 3.9 22:23:53 10° NNW 22:28:49 49° WSW 22:30:09 39° SSW
CZ-2C R/B 4.3 22:28:11 10° N 22:32:31 50° WNW 22:34:15 32° SW
SL-16 R/B 3.4 22:28:31 10° NNW 22:33:50 38° NE 22:38:56 11° ESE
GP-B 3.0 22:30:50 10° N 22:35:13 83° W 22:36:11 54° SSW
CZ-2C R/B 2.6 22:39:09 38° SSE 22:41:13 76° ENE 22:46:25 10° NNW
Lacrosse 4 Rocket 1.5 22:42:44 49° ESE 22:42:49 50° ESE 22:46:46 10° NE
Cosmos 2237 Rocket 2.2 22:39:32 10° NNW 22:45:11 69° WSW 22:47:09 41° S
SeaSat 1 3.2 22:42:54 19° ESE 22:46:08 49° NE 22:50:52 10° NNW
USA 234 3.3 22:39:57 10° ENE 22:46:26 59° SE 22:49:36 31° SSW
Cosmos 2266 Rocket 4.2 22:42:09 10° NNW 22:48:02 55° W 22:50:26 34° SSW
Cosmos 1980 3.8 22:43:50 10° NW 22:49:25 60° WSW 22:51:12 41° S
Intercosmos 24 3.8 22:49:30 10° NNW 22:53:15 56° W 22:53:29 55° WSW
ARIANE 5 R/B 3.9 22:52:41 25° WSW 22:53:31 27° W 22:57:20 10° NW
ATLAS 2AS CENTAUR R/B 4.0 22:47:52 10° NW 22:54:14 40° NNE 23:00:35 10° E
ALOS 2 3.7 22:54:46 28° WSW 22:55:31 30° W 22:59:26 10° NNW
Cosmos 2227 Rocket 2.6 22:55:49 36° SSE 22:57:33 47° ESE 23:02:59 10° NE
COSMOS 2428 3.9 22:53:41 10° NW 22:58:18 26° WSW 22:59:35 24° SW
Meteor 2-4 Rocket 3.6 23:00:13 41° S 23:02:12 88° E 23:07:48 10° NNE
BlueWalker 3 2.4 23:05:21 40° E 23:05:21 40° E 23:07:57 10° ENE
Cosmos 2263 Rocket 3.1 23:03:56 29° SE 23:05:38 36° ESE 23:10:40 10° NE
CZ-2C R/B 3.4 23:01:08 10° NNE 23:06:54 77° WNW 23:09:26 35° SSW
Cosmos 1125 Rocket 4.2 23:04:03 10° NNW 23:09:14 52° ENE 23:12:45 20° SE
Cosmos 1766 Rocket 3.8 23:05:11 10° NNW 23:09:23 53° W 23:10:08 46° SW
Cosmos 1758 3.8 23:06:59 10° N 23:10:30 46° ENE 23:11:14 39° ESE
Cosmos 1238 Rocket 3.2 23:14:04 45° WSW 23:14:56 55° WNW 23:19:18 10° N
Cosmos 1655 Rocket 4.1 23:15:26 10° NNW 23:21:35 62° W 23:24:15 34° SSW
SWARM C 4.3 23:19:50 10° N 23:23:06 90° E 23:23:06 90° E
SWARM A 4.1 23:19:57 10° N 23:23:12 76° E 23:23:15 75° E
Cosmos 1814 Rocket 3.9 23:21:58 41° SSW 23:23:50 88° ESE 23:29:08 10° NNE
Alouette 2 Rocket 4.1 23:23:41 10° NNW 23:27:23 44° W 23:28:19 39° SW
Meteor 2-11 Rocket 4.4 23:22:20 10° NNW 23:28:28 74° W 23:31:13 34° S
Meteor 1-27 Rocket 4.4 23:25:49 28° SW 23:28:36 47° WNW 23:34:08 10° N
Meteor 2-10 Rocket 3.8 23:24:31 10° NNW 23:30:01 63° W 23:32:13 37° SSW
Cosmos 2297 Rocket 2.8 23:27:59 23° WSW 23:31:18 51° NW 23:36:49 10° NNE
Cosmos 1340 Rocket 3.3 23:27:45 10° N 23:31:31 52° ENE 23:32:47 35° SE
CENTAUR R/B 4.2 23:31:16 12° SE 23:33:47 16° ESE 23:37:22 10° ENE
Cosmos 1151 Rocket 3.4 23:34:52 38° SSE 23:36:11 54° E 23:40:24 10° NNE
BREEZE-M DEB (TANK) 3.8 23:39:18 29° SE 23:39:18 29° SE 23:42:15 10° ESE
DELTA 2 DEB (DPAF) 3.4 23:34:57 10° NNE 23:38:32 78° ESE 23:39:02 62° S
SL-14 R/B 3.1 23:39:49 58° SSW 23:40:31 85° W 23:44:20 10° N
CZ-4C R/B 2.9 23:37:56 10° NNE 23:41:21 77° WNW 23:41:47 64° SW
Cosmos 1244 Rocket 4.4 23:35:43 10° NNW 23:41:51 72° W 23:44:47 32° S
Cosmos 158 Rocket 4.3 23:39:40 32° SW 23:42:07 63° WNW 23:47:25 10° NNE
ACS3 Solar Sail 1.7 23:37:11 10° NNE 23:43:12 80° ESE 23:46:10 32° S
Cosmos 1953 4.0 23:41:33 10° NNE 23:44:39 25° ENE 23:46:58 14° ESE
Landsat 5 3.8 23:43:23 10° N 23:47:21 51° WNW 23:48:28 38° WSW
Cosmos 1500 Rocket 3.5 23:44:52 10° N 23:49:20 89° E 23:50:57 39° S
IDEFIX/ARIANE 42P 3.8 23:44:57 10° NNE 23:49:40 33° E 23:52:42 19° SSE
Cosmos 1703 4.0 23:54:48 28° ESE 23:55:30 31° E 23:58:24 10° NNE
